Location: Unspecified
(49.2170°N, 0.0000°E)
Time: 17:23:02
(UTC+00:00)

Envisat - Pass Details

Date: 29 November 2020
Orbit: 764 x 766 km, 98.1° (Epoch: 20 January)

Event Time Altitude Azimuth Distance (km) Brightness Sun altitude
Rises 17:50:08 0° 194° (SSW) 3,221 6.6 -16.5°
Reaches altitude 10° 17:52:42 10° 205° (SSW) 2,300 6.0 -16.9°
Maximum altitude 17:57:06 30° 266° (W) 1,366 5.1 -17.6°
Drops below altitude 10° 18:01:33 10° 327° (NNW) 2,315 5.7 -18.3°
Sets 18:04:09 0° 338° (NNW) 3,247 6.4 -18.7°
